TIANHUI 6A

Satellite information

Favourite Embed

Satellite Type and Status

PAYLOADIN ORBIT

Key statistics

Satellite TIANHUI 6A at a glance.

Uptime

964

Days in orbit

Revolutions

≈ 14.0

Per day

Orbit

SSO

Sun Synchronous Orbit

Inclination

99.0

Latest

Satellite identification and parameters

Extended collection of information and parameters for TIANHUI 6A.

Object identification

Identified? True

Debris? False

Object name: TIANHUI 6A

International designator: 2023-030A

Object number (NORAD): 55836

Object ID (CCSDS): 55836

Country: PEOPLES REPUBLIC OF CHINA (PRC)

Current information (Y/N): Y

RCS size: LARGE

Orbital parameters

Period: 102.801 minutes

Inclination: 99.0153 deg

SMA: 7269.273 km

Apoapsis: 894.206 km

Periapsis: 888.069 km

RAAN: 307.1105 deg

Eccentricy: 0.00042209

Argument of periapsis: 99.8862 deg

Mean anomaly: 260.2779 deg

Mean motion: 14.00768348 rev/day

Mean motion (dot): 0.00000246 rev/day2

B* drag term: 0.00019420461 1/REarth

Two-line elements (TLE)

Creation date: Oct. 28, 2025, 2:18 a.m.

Reference frame: TEME

Reference center: EARTH

Epoch: Oct. 27, 2025, 11:02 p.m. UTC

TLE line 0: 0 TIANHUI 6A

TLE line 1: 1 55836U 23030A 25300.96015111 .00000246 00000-0 19420-3 0 9990

TLE line 2: 2 55836 99.0153 307.1105 0004221 99.8862 260.2779 14.00768348134871

Live tracking on map

Real-time ground track for satellite TIANHUI 6A.

In-orbit conjunctions

There are no conjunctions computed for TIANHUI 6A, at the moment. Check back to stay up to date, as we update our databases every day.

Go to all conjunctions

Associated space launch

Described as satellites for cartography purposes, details TBD.

TIANHUI 6A was lifted into orbit during the mission ‘Long March 4C | Tianhui-6 A/B’, on board a Long March 4C space rocket.

The launch took place on March 9, 2023, 10:41 p.m. from Launch Complex 9.

For more information about the launch, click the button.

Launch to space Long March 4C | Tianhui-6 A/B
Long March 4C | Tianhui-6 A/B

Agency: N/A

Status: Launch Successful

Launch date: March 9, 2023, 10:41 p.m. UTC

Rocket: Long March 4C

Launch pad: Launch Complex 9

Location: Taiyuan Satellite Launch Center, People's Republic of China

...

Latest news about this satellite

There are no fresh news available about this satellite. Check back as we update our databases every day.


Newsletter sign-up

Weekly statistics, charts and insights to help you stay on top of the space industry.